SWA6299 MKJP-TNCM

Flight info

Callsign SWA6299
Flight time 1h 51m
Altitude 36000
Route ALKOL5 MLY UG633 KEBET/N0466F370 UL577 ANTEX L577 GOUDA L204 PJM
Aircraft B738/M-SDE2E3FGHIRWXY/LB1

Departure

Time 2026-05-07 11:58
Airport Norman Manley International Airport (MKJP)

Arrival

Time 2026-05-07 13:49
Airport Princess Juliana International Airport (TNCM)
Time Latitude Longitude Altitude Speed Heading
2026-05-07 11:33 17.93625 -76.78052 19 ft 0 kts 109°
2026-05-07 11:47 17.93626 -76.78052 19 ft 1 kts 109°
2026-05-07 11:48 17.93630 -76.78068 19 ft 2 kts 109°
2026-05-07 11:48 17.93638 -76.78082 19 ft 2 kts 129°
2026-05-07 11:48 17.93648 -76.78092 19 ft 2 kts 143°
2026-05-07 11:48 17.93661 -76.78101 19 ft 2 kts 159°
2026-05-07 11:49 17.93675 -76.78104 19 ft 2 kts 174°
2026-05-07 11:49 17.93690 -76.78104 19 ft 2 kts 190°
2026-05-07 11:49 17.93702 -76.78101 19 ft 1 kts 203°
2026-05-07 11:49 17.93707 -76.78098 19 ft 0 kts 202°
2026-05-07 11:51 17.93704 -76.78099 19 ft 2 kts 197°
2026-05-07 11:51 17.93685 -76.78103 19 ft 4 kts 189°
2026-05-07 11:51 17.93646 -76.78112 19 ft 7 kts 197°
2026-05-07 11:52 17.93597 -76.78129 19 ft 7 kts 200°
2026-05-07 11:52 17.93552 -76.78149 19 ft 7 kts 211°
2026-05-07 11:52 17.93527 -76.78210 19 ft 10 kts 272°
2026-05-07 11:52 17.93550 -76.78290 19 ft 11 kts 291°
2026-05-07 11:53 17.93583 -76.78374 19 ft 13 kts 292°
2026-05-07 11:53 17.93621 -76.78472 19 ft 14 kts 292°
2026-05-07 11:53 17.93658 -76.78571 18 ft 14 kts 292°
2026-05-07 11:53 17.93694 -76.78663 19 ft 13 kts 292°
2026-05-07 11:54 17.93728 -76.78752 19 ft 13 kts 291°
2026-05-07 11:54 17.93763 -76.78842 19 ft 13 kts 292°
2026-05-07 11:54 17.93797 -76.78931 19 ft 13 kts 292°
2026-05-07 11:54 17.93832 -76.79021 19 ft 13 kts 292°
2026-05-07 11:55 17.93867 -76.79109 19 ft 13 kts 291°
2026-05-07 11:55 17.93900 -76.79196 19 ft 12 kts 292°
2026-05-07 11:55 17.93934 -76.79283 19 ft 12 kts 292°
2026-05-07 11:55 17.93968 -76.79370 19 ft 12 kts 292°
2026-05-07 11:56 17.94002 -76.79456 19 ft 12 kts 292°
2026-05-07 11:56 17.94034 -76.79543 19 ft 12 kts 291°
2026-05-07 11:56 17.94067 -76.79631 19 ft 13 kts 292°
2026-05-07 11:56 17.94092 -76.79722 19 ft 12 kts 279°
2026-05-07 11:57 17.94105 -76.79816 17 ft 12 kts 278°
2026-05-07 11:57 17.94086 -76.79898 17 ft 11 kts 219°
2026-05-07 11:57 17.94019 -76.79908 18 ft 8 kts 147°
2026-05-07 11:57 17.93958 -76.79765 19 ft 55 kts 111°
2026-05-07 11:58 17.93713 -76.79130 20 ft 131 kts 112°
2026-05-07 11:58 17.93291 -76.78050 189 ft 176 kts 112°
2026-05-07 11:58 17.92838 -76.76884 1025 ft 176 kts 112°
2026-05-07 11:58 17.92336 -76.75678 1594 ft 191 kts 121°
2026-05-07 11:59 17.91418 -76.74576 1973 ft 213 kts 126°
2026-05-07 11:59 17.90956 -76.73039 2357 ft 236 kts 84°
2026-05-07 11:59 17.91291 -76.71327 3224 ft 245 kts 81°
2026-05-07 11:59 17.91577 -76.69544 3988 ft 256 kts 83°
2026-05-07 12:00 17.91845 -76.67699 4963 ft 259 kts 83°
2026-05-07 12:00 17.92128 -76.65838 5894 ft 263 kts 83°
2026-05-07 12:00 17.92426 -76.63953 6806 ft 267 kts 83°
2026-05-07 12:00 17.92738 -76.62015 7673 ft 272 kts 82°
2026-05-07 12:01 17.93055 -76.60062 8521 ft 276 kts 82°
2026-05-07 12:01 17.93375 -76.58086 9336 ft 280 kts 82°
2026-05-07 12:01 17.93707 -76.56042 10093 ft 287 kts 82°
2026-05-07 12:01 17.94047 -76.53941 10518 ft 306 kts 81°
2026-05-07 12:02 17.94418 -76.51643 10721 ft 331 kts 81°
2026-05-07 12:02 17.94812 -76.49209 11130 ft 348 kts 81°
2026-05-07 12:02 17.95221 -76.46682 11818 ft 357 kts 81°
2026-05-07 12:02 17.95641 -76.44090 12588 ft 362 kts 81°
2026-05-07 12:03 17.96064 -76.41473 13424 ft 366 kts 80°
2026-05-07 12:03 17.96485 -76.38850 14162 ft 371 kts 80°
2026-05-07 12:03 17.96916 -76.36161 14966 ft 373 kts 80°
2026-05-07 12:03 17.97347 -76.33476 15703 ft 377 kts 80°
2026-05-07 12:04 17.97784 -76.30772 16417 ft 382 kts 79°
2026-05-07 12:04 17.98230 -76.28017 17137 ft 385 kts 79°
2026-05-07 12:04 17.98680 -76.25227 17877 ft 388 kts 79°
2026-05-07 12:04 17.99125 -76.22464 18570 ft 391 kts 79°
2026-05-07 12:05 17.99582 -76.19622 19269 ft 394 kts 79°
2026-05-07 12:05 18.00036 -76.16791 19948 ft 397 kts 78°
2026-05-07 12:05 18.00488 -76.13966 20598 ft 399 kts 78°
2026-05-07 12:05 18.00952 -76.11067 21242 ft 402 kts 78°
2026-05-07 12:06 18.01417 -76.08163 21862 ft 405 kts 78°
2026-05-07 12:06 18.01878 -76.05276 22456 ft 408 kts 78°
2026-05-07 12:06 18.02346 -76.02341 23038 ft 411 kts 77°
2026-05-07 12:06 18.02820 -75.99366 23616 ft 413 kts 77°
2026-05-07 12:07 18.03291 -75.96407 24201 ft 415 kts 77°
2026-05-07 12:07 18.03767 -75.93416 24666 ft 419 kts 77°
2026-05-07 12:07 18.04253 -75.90362 25173 ft 422 kts 77°
2026-05-07 12:07 18.04733 -75.87342 25649 ft 426 kts 77°
2026-05-07 12:08 18.05218 -75.84283 26108 ft 429 kts 77°
2026-05-07 12:08 18.05713 -75.81158 26574 ft 432 kts 77°
2026-05-07 12:08 18.06204 -75.78053 27004 ft 436 kts 77°
2026-05-07 12:08 18.06699 -75.74926 27414 ft 439 kts 77°
2026-05-07 12:09 18.07205 -75.71722 27825 ft 443 kts 77°
2026-05-07 12:09 18.07706 -75.68543 28219 ft 446 kts 77°
2026-05-07 12:09 18.08213 -75.65325 28607 ft 449 kts 77°
2026-05-07 12:09 18.08724 -75.62080 28978 ft 452 kts 77°
2026-05-07 12:10 18.09234 -75.58833 29339 ft 455 kts 77°
2026-05-07 12:10 18.09751 -75.55541 29774 ft 455 kts 77°
2026-05-07 12:10 18.10257 -75.52306 30231 ft 455 kts 77°
2026-05-07 12:10 18.10772 -75.49014 30706 ft 455 kts 77°
2026-05-07 12:11 18.11285 -75.45732 31205 ft 453 kts 77°
2026-05-07 12:11 18.11791 -75.42494 31651 ft 452 kts 77°
2026-05-07 12:11 18.12298 -75.39243 32073 ft 452 kts 77°
2026-05-07 12:11 18.12800 -75.36019 32515 ft 450 kts 77°
2026-05-07 12:12 18.13303 -75.32791 32909 ft 450 kts 77°
2026-05-07 12:12 18.13808 -75.29541 33308 ft 449 kts 77°
2026-05-07 12:12 18.14309 -75.26311 33718 ft 447 kts 77°
2026-05-07 12:12 18.14809 -75.23090 34060 ft 447 kts 77°
2026-05-07 12:13 18.15308 -75.19872 34391 ft 447 kts 77°
2026-05-07 12:13 18.15806 -75.16653 34681 ft 448 kts 77°
2026-05-07 12:13 18.16300 -75.13462 34997 ft 447 kts 77°
2026-05-07 12:13 18.16803 -75.10206 35298 ft 447 kts 77°
2026-05-07 12:14 18.17296 -75.07012 35575 ft 448 kts 77°
2026-05-07 12:14 18.17792 -75.03796 35812 ft 448 kts 77°
2026-05-07 12:14 18.18291 -75.00555 36103 ft 448 kts 77°
2026-05-07 12:14 18.18791 -74.97309 36340 ft 448 kts 77°
2026-05-07 12:15 18.19280 -74.94122 36575 ft 448 kts 77°
2026-05-07 12:15 18.19781 -74.90860 36799 ft 449 kts 77°
2026-05-07 12:15 18.20272 -74.87655 37005 ft 449 kts 77°
2026-05-07 12:16 18.21272 -74.81127 37059 ft 455 kts 77°
2026-05-07 12:16 18.22272 -74.74580 37059 ft 456 kts 77°
2026-05-07 12:17 18.23275 -74.67989 37059 ft 454 kts 77°
2026-05-07 12:17 18.24264 -74.61484 37061 ft 454 kts 77°
2026-05-07 12:18 18.25258 -74.54923 37061 ft 454 kts 77°
2026-05-07 12:18 18.26252 -74.48351 37061 ft 454 kts 77°
2026-05-07 12:19 18.27238 -74.41821 37061 ft 454 kts 77°
2026-05-07 12:19 18.28220 -74.35298 37061 ft 454 kts 77°
2026-05-07 12:20 18.29203 -74.28744 37060 ft 454 kts 77°
2026-05-07 12:20 18.30182 -74.22206 37059 ft 453 kts 77°
2026-05-07 12:21 18.31161 -74.15655 37059 ft 454 kts 77°
2026-05-07 12:21 18.32135 -74.09126 37059 ft 455 kts 77°
2026-05-07 12:22 18.33113 -74.02552 37058 ft 455 kts 77°
2026-05-07 12:22 18.34085 -73.96001 37058 ft 456 kts 77°
2026-05-07 12:23 18.35061 -73.89408 37057 ft 455 kts 77°
2026-05-07 12:23 18.36026 -73.82865 37056 ft 453 kts 77°
2026-05-07 12:24 18.36988 -73.76339 37056 ft 453 kts 77°
2026-05-07 12:24 18.37953 -73.69773 37056 ft 453 kts 77°
2026-05-07 12:25 18.38906 -73.63268 37055 ft 453 kts 77°
2026-05-07 12:25 18.39864 -73.56719 37054 ft 453 kts 77°
2026-05-07 12:26 18.40822 -73.50156 37054 ft 453 kts 77°
2026-05-07 12:26 18.41771 -73.43630 37053 ft 452 kts 77°
2026-05-07 12:27 18.42716 -73.37122 37053 ft 452 kts 77°
2026-05-07 12:27 18.43663 -73.30582 37052 ft 452 kts 77°
2026-05-07 12:28 18.44607 -73.24041 37052 ft 452 kts 77°
2026-05-07 12:28 18.45548 -73.17506 37051 ft 452 kts 77°
2026-05-07 12:29 18.46481 -73.11014 37051 ft 451 kts 77°
2026-05-07 12:29 18.47413 -73.04514 37050 ft 451 kts 77°
2026-05-07 12:30 18.48349 -72.97972 37050 ft 451 kts 77°
2026-05-07 12:30 18.49280 -72.91444 37050 ft 451 kts 76°
2026-05-07 12:31 18.50186 -72.84943 37049 ft 451 kts 77°
2026-05-07 12:31 18.51087 -72.78420 37049 ft 450 kts 77°
2026-05-07 12:32 18.51983 -72.71924 37049 ft 450 kts 77°
2026-05-07 12:32 18.52873 -72.65448 37048 ft 449 kts 76°
2026-05-07 12:33 18.54211 -72.55696 37049 ft 450 kts 76°
2026-05-07 12:33 18.55102 -72.49184 37048 ft 450 kts 76°
2026-05-07 12:34 18.55987 -72.42691 37048 ft 449 kts 76°
2026-05-07 12:34 18.56863 -72.36162 37047 ft 449 kts 78°
2026-05-07 12:35 18.57198 -72.29594 37045 ft 456 kts 88°
2026-05-07 12:35 18.56509 -72.22922 37049 ft 461 kts 92°
2026-05-07 12:36 18.55601 -72.16215 37048 ft 461 kts 93°
2026-05-07 12:36 18.54678 -72.09586 37048 ft 461 kts 93°
2026-05-07 12:37 18.53739 -72.02915 37049 ft 461 kts 93°
2026-05-07 12:37 18.52787 -71.96213 37049 ft 461 kts 93°
2026-05-07 12:38 18.51859 -71.89574 37049 ft 459 kts 91°
2026-05-07 12:38 18.51453 -71.82948 37051 ft 455 kts 86°
2026-05-07 12:39 18.51238 -71.76315 37050 ft 454 kts 86°
2026-05-07 12:39 18.51020 -71.69643 37050 ft 454 kts 86°
2026-05-07 12:40 18.50797 -71.63033 37051 ft 454 kts 86°
2026-05-07 12:40 18.50569 -71.56405 37051 ft 454 kts 86°
2026-05-07 12:41 18.50337 -71.49758 37051 ft 454 kts 86°
2026-05-07 12:41 18.50102 -71.43132 37051 ft 454 kts 86°
2026-05-07 12:42 18.49865 -71.36525 37050 ft 454 kts 86°
2026-05-07 12:42 18.49624 -71.29874 37050 ft 454 kts 86°
2026-05-07 12:43 18.49380 -71.23235 37050 ft 454 kts 86°
2026-05-07 12:43 18.49134 -71.16577 37050 ft 454 kts 86°
2026-05-07 12:44 18.48887 -71.09964 37049 ft 454 kts 86°
2026-05-07 12:44 18.48636 -71.03333 37051 ft 453 kts 86°
2026-05-07 12:45 18.48385 -70.96736 37054 ft 453 kts 86°
2026-05-07 12:45 18.48131 -70.90126 37055 ft 453 kts 85°
2026-05-07 12:46 18.47875 -70.83498 37058 ft 452 kts 85°
2026-05-07 12:46 18.47616 -70.76897 37061 ft 452 kts 85°
2026-05-07 12:47 18.47357 -70.70318 37064 ft 452 kts 85°
2026-05-07 12:47 18.47096 -70.63757 37070 ft 451 kts 85°
2026-05-07 12:48 18.46831 -70.57147 37074 ft 451 kts 85°
2026-05-07 12:48 18.46565 -70.50545 37079 ft 453 kts 85°
2026-05-07 12:49 18.46294 -70.43954 37081 ft 450 kts 85°
2026-05-07 12:49 18.46026 -70.37394 37086 ft 453 kts 85°
2026-05-07 12:50 18.45751 -70.30788 37089 ft 453 kts 85°
2026-05-07 12:50 18.45473 -70.24190 37090 ft 450 kts 85°
2026-05-07 12:51 18.45196 -70.17650 37094 ft 448 kts 85°
2026-05-07 12:51 18.44793 -70.11076 37097 ft 451 kts 88°
2026-05-07 12:52 18.44203 -70.04509 37097 ft 451 kts 88°
2026-05-07 12:52 18.43625 -69.97996 37096 ft 449 kts 86°
2026-05-07 12:53 18.43486 -69.91450 37094 ft 444 kts 83°
2026-05-07 12:53 18.43475 -69.84973 37089 ft 445 kts 83°
2026-05-07 12:54 18.43459 -69.78484 37081 ft 445 kts 83°
2026-05-07 12:54 18.43434 -69.71972 37076 ft 444 kts 83°
2026-05-07 12:55 18.43423 -69.65507 37075 ft 443 kts 81°
2026-05-07 12:55 18.43617 -69.59018 37075 ft 443 kts 81°
2026-05-07 12:56 18.43835 -69.52548 37077 ft 444 kts 81°
2026-05-07 12:56 18.44043 -69.46086 37076 ft 444 kts 81°
2026-05-07 12:57 18.44244 -69.39610 37078 ft 444 kts 81°
2026-05-07 12:57 18.44439 -69.33151 37078 ft 444 kts 81°
2026-05-07 12:58 18.44631 -69.26676 37077 ft 443 kts 81°
2026-05-07 12:58 18.44819 -69.20213 37077 ft 443 kts 81°
2026-05-07 12:59 18.45006 -69.13742 37074 ft 443 kts 81°
2026-05-07 12:59 18.45192 -69.07240 37074 ft 443 kts 81°
2026-05-07 13:00 18.45373 -69.00806 37075 ft 443 kts 81°
2026-05-07 13:00 18.45554 -68.94303 37075 ft 443 kts 81°
2026-05-07 13:01 18.45732 -68.87822 37075 ft 444 kts 81°
2026-05-07 13:01 18.45907 -68.81363 37074 ft 443 kts 81°
2026-05-07 13:02 18.46080 -68.74880 37074 ft 443 kts 81°
2026-05-07 13:02 18.46252 -68.68429 37074 ft 443 kts 81°
2026-05-07 13:03 18.46421 -68.61937 37074 ft 444 kts 81°
2026-05-07 13:03 18.46588 -68.55462 37074 ft 444 kts 81°
2026-05-07 13:04 18.46753 -68.48981 37074 ft 444 kts 81°
2026-05-07 13:04 18.46915 -68.42524 37075 ft 444 kts 81°
2026-05-07 13:05 18.47076 -68.36038 37075 ft 444 kts 81°
2026-05-07 13:05 18.47233 -68.29542 37075 ft 443 kts 81°
2026-05-07 13:06 18.47388 -68.23075 37075 ft 443 kts 81°
2026-05-07 13:06 18.47541 -68.16622 37076 ft 443 kts 81°
2026-05-07 13:07 18.47693 -68.10129 37076 ft 443 kts 81°
2026-05-07 13:07 18.47836 -68.03654 37077 ft 443 kts 82°
2026-05-07 13:08 18.47669 -67.97168 37079 ft 450 kts 88°
2026-05-07 13:08 18.47076 -67.90608 37079 ft 452 kts 88°
2026-05-07 13:09 18.46459 -67.84042 37106 ft 452 kts 88°
2026-05-07 13:09 18.45840 -67.77444 37106 ft 451 kts 88°
2026-05-07 13:10 18.45230 -67.70933 37108 ft 450 kts 88°
2026-05-07 13:10 18.44614 -67.64378 37109 ft 451 kts 88°
2026-05-07 13:11 18.43998 -67.57835 37111 ft 451 kts 88°
2026-05-07 13:11 18.43379 -67.51283 37112 ft 451 kts 88°
2026-05-07 13:12 18.42755 -67.44701 37113 ft 450 kts 88°
2026-05-07 13:12 18.42133 -67.38173 37115 ft 450 kts 88°
2026-05-07 13:13 18.41508 -67.31622 37116 ft 452 kts 89°
2026-05-07 13:13 18.40875 -67.25014 37117 ft 454 kts 89°
2026-05-07 13:14 18.40242 -67.18443 37117 ft 454 kts 89°
2026-05-07 13:14 18.39601 -67.11813 37118 ft 454 kts 89°
2026-05-07 13:15 18.38961 -67.05207 37118 ft 455 kts 89°
2026-05-07 13:15 18.38320 -66.98615 37115 ft 456 kts 89°
2026-05-07 13:16 18.37672 -66.91983 37113 ft 456 kts 89°
2026-05-07 13:16 18.37021 -66.85334 37110 ft 457 kts 89°
2026-05-07 13:17 18.36371 -66.78726 37107 ft 458 kts 90°
2026-05-07 13:17 18.35713 -66.72060 37103 ft 459 kts 90°
2026-05-07 13:18 18.35053 -66.65399 37101 ft 459 kts 90°
2026-05-07 13:18 18.34387 -66.58691 37099 ft 460 kts 90°
2026-05-07 13:19 18.33723 -66.52033 37100 ft 461 kts 90°
2026-05-07 13:19 18.33052 -66.45339 37099 ft 461 kts 90°
2026-05-07 13:20 18.32380 -66.38654 37100 ft 461 kts 90°
2026-05-07 13:20 18.31707 -66.31975 37101 ft 462 kts 90°
2026-05-07 13:21 18.31026 -66.25240 37101 ft 463 kts 90°
2026-05-07 13:21 18.30344 -66.18524 37101 ft 463 kts 90°
2026-05-07 13:22 18.29659 -66.11809 37101 ft 462 kts 91°
2026-05-07 13:22 18.28974 -66.05115 37101 ft 463 kts 91°
2026-05-07 13:23 18.28282 -65.98360 37102 ft 463 kts 91°
2026-05-07 13:23 18.27589 -65.91638 37104 ft 464 kts 91°
2026-05-07 13:24 18.26892 -65.84893 37108 ft 464 kts 91°
2026-05-07 13:24 18.26197 -65.78185 37113 ft 464 kts 91°
2026-05-07 13:25 18.25496 -65.71458 37116 ft 464 kts 91°
2026-05-07 13:25 18.24793 -65.64723 37118 ft 464 kts 91°
2026-05-07 13:26 18.24089 -65.57996 37118 ft 464 kts 91°
2026-05-07 13:26 18.23382 -65.51276 37118 ft 464 kts 91°
2026-05-07 13:27 18.22670 -65.44524 37115 ft 465 kts 91°
2026-05-07 13:27 18.21960 -65.37820 37111 ft 465 kts 91°
2026-05-07 13:28 18.21241 -65.31047 37107 ft 466 kts 91°
2026-05-07 13:28 18.20525 -65.24326 37103 ft 466 kts 91°
2026-05-07 13:29 18.19802 -65.17561 37099 ft 466 kts 91°
2026-05-07 13:29 18.19074 -65.10772 37096 ft 467 kts 92°
2026-05-07 13:30 18.18348 -65.04027 37095 ft 468 kts 92°
2026-05-07 13:30 18.17602 -64.97217 37094 ft 469 kts 94°
2026-05-07 13:31 18.16431 -64.90466 37095 ft 472 kts 97°
2026-05-07 13:31 18.15161 -64.83708 37097 ft 472 kts 97°
2026-05-07 13:32 18.13912 -64.76981 37100 ft 473 kts 97°
2026-05-07 13:32 18.12677 -64.70319 36936 ft 448 kts 97°
2026-05-07 13:33 18.12090 -64.67140 36739 ft 451 kts 97°
2026-05-07 13:33 18.11489 -64.63858 36484 ft 463 kts 97°
2026-05-07 13:33 18.10879 -64.60525 36217 ft 470 kts 97°
2026-05-07 13:33 18.10257 -64.57150 35923 ft 465 kts 97°
2026-05-07 13:34 18.09647 -64.53844 35640 ft 464 kts 97°
2026-05-07 13:34 18.08417 -64.47164 35092 ft 468 kts 97°
2026-05-07 13:34 18.07797 -64.43810 34818 ft 471 kts 97°
2026-05-07 13:35 18.07171 -64.40417 34512 ft 468 kts 97°
2026-05-07 13:35 18.06562 -64.37132 34027 ft 464 kts 97°
2026-05-07 13:35 18.05937 -64.33749 33372 ft 473 kts 98°
2026-05-07 13:35 18.05316 -64.30392 32537 ft 473 kts 98°
2026-05-07 13:36 18.04688 -64.27004 31743 ft 468 kts 98°
2026-05-07 13:36 18.04069 -64.23666 30972 ft 473 kts 98°
2026-05-07 13:36 18.03515 -64.20267 30015 ft 472 kts 94°
2026-05-07 13:36 18.03355 -64.16849 28824 ft 472 kts 89°
2026-05-07 13:37 18.03330 -64.13444 27625 ft 473 kts 88°
2026-05-07 13:37 18.03308 -64.09985 26399 ft 473 kts 89°
2026-05-07 13:37 18.03271 -64.06557 25179 ft 473 kts 89°
2026-05-07 13:37 18.03222 -64.03118 23954 ft 473 kts 89°
2026-05-07 13:38 18.03163 -63.99717 22737 ft 472 kts 90°
2026-05-07 13:38 18.03096 -63.96296 21510 ft 470 kts 90°
2026-05-07 13:38 18.03026 -63.92914 20287 ft 467 kts 90°
2026-05-07 13:38 18.02952 -63.89516 19109 ft 461 kts 90°
2026-05-07 13:39 18.02878 -63.86249 18841 ft 432 kts 90°
2026-05-07 13:39 18.02807 -63.83203 18315 ft 407 kts 90°
2026-05-07 13:39 18.02738 -63.80315 17747 ft 387 kts 89°
2026-05-07 13:39 18.02673 -63.77576 17142 ft 370 kts 89°
2026-05-07 13:40 18.02609 -63.74917 16513 ft 356 kts 90°
2026-05-07 13:40 18.02548 -63.72402 15895 ft 343 kts 90°
2026-05-07 13:40 18.02487 -63.69945 15269 ft 333 kts 90°
2026-05-07 13:40 18.02427 -63.67567 14647 ft 323 kts 90°
2026-05-07 13:41 18.02369 -63.65239 13993 ft 316 kts 90°
2026-05-07 13:41 18.02311 -63.62940 13242 ft 312 kts 90°
2026-05-07 13:41 18.02253 -63.60683 12494 ft 309 kts 90°
2026-05-07 13:41 18.02196 -63.58447 11744 ft 306 kts 90°
2026-05-07 13:42 18.02139 -63.56238 10995 ft 302 kts 90°
2026-05-07 13:42 18.02083 -63.54054 10247 ft 299 kts 91°
2026-05-07 13:42 18.02031 -63.51920 9509 ft 296 kts 91°
2026-05-07 13:42 18.01979 -63.49774 8756 ft 292 kts 91°
2026-05-07 13:43 18.01926 -63.47670 8008 ft 289 kts 91°
2026-05-07 13:43 18.01867 -63.45585 7258 ft 286 kts 91°
2026-05-07 13:43 18.01808 -63.43525 6511 ft 283 kts 91°
2026-05-07 13:43 18.01752 -63.41487 5762 ft 280 kts 91°
2026-05-07 13:44 18.01696 -63.39463 5012 ft 277 kts 92°
2026-05-07 13:44 18.01642 -63.37462 4357 ft 269 kts 92°
2026-05-07 13:44 18.01590 -63.35554 3952 ft 254 kts 92°
2026-05-07 13:44 18.01541 -63.33752 3714 ft 239 kts 92°
2026-05-07 13:45 18.01495 -63.32064 3430 ft 228 kts 92°
2026-05-07 13:45 18.01451 -63.30444 3173 ft 214 kts 92°
2026-05-07 13:45 18.01562 -63.28963 3037 ft 195 kts 83°
2026-05-07 13:45 18.01728 -63.27642 2923 ft 168 kts 84°
2026-05-07 13:46 18.01870 -63.26469 2621 ft 154 kts 84°
2026-05-07 13:46 18.02016 -63.25382 2475 ft 151 kts 83°
2026-05-07 13:46 18.02174 -63.24276 2279 ft 154 kts 83°
2026-05-07 13:46 18.02333 -63.23177 2024 ft 152 kts 83°
2026-05-07 13:47 18.02492 -63.22083 1825 ft 150 kts 83°
2026-05-07 13:47 18.02648 -63.20995 1695 ft 151 kts 83°
2026-05-07 13:47 18.02805 -63.19902 1574 ft 152 kts 83°
2026-05-07 13:47 18.02963 -63.18795 1362 ft 154 kts 83°
2026-05-07 13:48 18.03126 -63.17680 1140 ft 153 kts 83°
2026-05-07 13:48 18.03268 -63.16576 940 ft 156 kts 82°
2026-05-07 13:48 18.03455 -63.15452 746 ft 157 kts 82°
2026-05-07 13:48 18.03614 -63.14331 552 ft 154 kts 82°
2026-05-07 13:49 18.03768 -63.13208 333 ft 153 kts 82°
2026-05-07 13:49 18.03923 -63.12112 107 ft 151 kts 82°
2026-05-07 13:49 18.04074 -63.11052 18 ft 135 kts 82°
2026-05-07 13:49 18.04169 -63.10377 19 ft 44 kts 81°
2026-05-07 13:50 18.04178 -63.10243 17 ft 3 kts 36°
2026-05-07 13:50 18.04189 -63.10272 18 ft 10 kts 257°
2026-05-07 13:50 18.04169 -63.10366 19 ft 15 kts 260°
2026-05-07 13:50 18.04149 -63.10505 19 ft 22 kts 262°
2026-05-07 13:51 18.04124 -63.10680 16 ft 25 kts 261°
2026-05-07 13:51 18.04098 -63.10867 16 ft 26 kts 262°
2026-05-07 13:51 18.04070 -63.11052 17 ft 22 kts 261°
2026-05-07 13:51 18.04107 -63.11158 19 ft 13 kts 338°
2026-05-07 13:52 18.04141 -63.11216 19 ft 8 kts 266°
2026-05-07 13:52 18.04143 -63.11284 19 ft 9 kts 301°
2026-05-07 13:52 18.04207 -63.11307 20 ft 10 kts 355°
2026-05-07 13:52 18.04264 -63.11287 21 ft 8 kts 50°
2026-05-07 13:53 18.04298 -63.11229 20 ft 8 kts 40°
2026-05-07 13:53 18.04343 -63.11224 20 ft 3 kts 351°
2026-05-07 13:53 18.04348 -63.11225 20 ft 0 kts 351°